Weather History for Poplar Bluff, MO

Change the Weather History Date:

Wednesday, April 24, 2013

  Actual Average Record
Temperature  
Mean Temperature 50 °F -  
Max Temperature 60 °F 69 °F 89 °F (1925)
Min Temperature 41 °F 47 °F 32 °F (1919)
Degree Days  
Heating Degree Days 14    
Moisture  
Dew Point 37 °F    
Average Humidity 68    
Maximum Humidity 89    
Minimum Humidity 31    
Precipitation  
Precipitation 0.28 in - - ()
Sea Level Pressure  
Sea Level Pressure 30.14 in    
Wind  
Wind Speed 11 mph (NW)    
Max Wind Speed 17 mph    
Max Gust Speed 23 mph    
Visibility 10 miles    
Events Rain    
Averages and records for this station are not official NWS values.
T = Trace of Precipitation, MM = Missing Value Source: NWS Daily Summary

Daily Weather History Graph

Daily Weather History Graph

Search for Another Location

Airport:

Trip Planner

Search our weather history database for the weather conditions in past years. The results will help you decide how hot, cold, wet, or windy it might be!

Date:

Astronomy

Apr. 24, 2013 Rise Set
Actual Time 6:15 AM CDT 7:43 PM CDT
Civil Twilight 5:48 AM CDT 8:11 PM CDT
Nautical Twilight 5:15 AM CDT 8:44 PM CDT
Astronomical Twilight 4:40 AM CDT 9:18 PM CDT
Moon 6:48 PM CDT (4/24) 5:17 AM CDT (4/24)
Length of Visible Light 14h 23m
Length of Day
13h 28m
Waxing Gibbous, 98% of the Moon is Illuminated
Apr 24
Waxing Gibbous
Apr 25
Full
May 2
Last Quarter
May 9
New
May 17
First Quarter

Hourly Weather History & Observations

Time (CDT) Temp. Windchill Dew Point Humidity Pressure Visibility Wind Dir Wind Speed Gust Speed Precip Events Conditions
12:53 AM 46.0 °F 39.9 °F 41.0 °F 83% 29.97 in 10.0 mi NNW 13.8 mph - N/A   Overcast
1:43 AM 46.4 °F 40.4 °F 39.2 °F 76% 30.00 in 10.0 mi NNW 13.8 mph 23.0 mph N/A   Overcast
1:51 AM 46.4 °F 40.1 °F 39.2 °F 76% 29.99 in 10.0 mi NNW 15.0 mph 23.0 mph N/A   Overcast
1:53 AM 46.0 °F 39.3 °F 39.0 °F 76% 29.98 in 10.0 mi NNW 16.1 mph 23.0 mph N/A   Overcast
2:53 AM 45.0 °F 38.2 °F 39.0 °F 80% 29.97 in 10.0 mi NNW 15.0 mph - 0.00 in Rain Light Rain
3:53 AM 44.1 °F 38.1 °F 37.9 °F 79% 30.01 in 10.0 mi NW 11.5 mph - 0.00 in   Overcast
4:10 AM 44.6 °F 38.1 °F 37.4 °F 76% 30.01 in 10.0 mi NNW 13.8 mph 21.9 mph 0.00 in Rain Light Rain
4:38 AM 42.8 °F 35.4 °F 37.4 °F 81% 30.00 in 10.0 mi NNW 15.0 mph 21.9 mph 0.00 in Rain Light Rain
5:53 AM 41.0 °F 36.4 °F 37.9 °F 89% 30.04 in 4.0 mi NW 6.9 mph - 0.23 in Rain Rain
6:27 AM 42.8 °F 37.5 °F 37.4 °F 81% 30.04 in 10.0 mi NW 9.2 mph - 0.05 in   Mostly Cloudy
6:53 AM 42.1 °F 36.1 °F 37.9 °F 85% 30.09 in 10.0 mi WNW 10.4 mph - 0.05 in   Overcast
7:53 AM 43.0 °F 37.2 °F 37.9 °F 82% 30.15 in 10.0 mi NW 10.4 mph - N/A   Overcast
8:53 AM 44.1 °F 37.4 °F 37.9 °F 79% 30.12 in 10.0 mi NW 13.8 mph 20.7 mph N/A   Overcast
9:53 AM 45.0 °F 38.9 °F 36.0 °F 71% 30.16 in 10.0 mi NNW 12.7 mph 21.9 mph N/A   Overcast
10:53 AM 46.9 °F - 36.0 °F 66% 30.20 in 10.0 mi NNW 17.3 mph 23.0 mph N/A   Overcast
11:07 AM 48.2 °F - 35.6 °F 62% 30.19 in 10.0 mi NW 16.1 mph 23.0 mph N/A   Mostly Cloudy
11:53 AM 51.1 °F - 37.9 °F 61% 30.21 in 10.0 mi NNW 10.4 mph - N/A   Mostly Cloudy
12:53 PM 51.1 °F - 33.1 °F 50% 30.22 in 10.0 mi Variable 6.9 mph - N/A   Mostly Cloudy
1:53 PM 54.0 °F - 35.1 °F 49% 30.22 in 10.0 mi Variable 6.9 mph - N/A   Mostly Cloudy
2:53 PM 57.0 °F - 33.1 °F 40% 30.21 in 10.0 mi WNW 5.8 mph 16.1 mph N/A   Clear
3:53 PM 57.9 °F - 32.0 °F 37% 30.20 in 10.0 mi Calm Calm - N/A   Clear
4:53 PM 59.0 °F - 28.0 °F 31% 30.20 in 10.0 mi Calm Calm - N/A   Clear
5:53 PM 60.1 °F - 28.9 °F 31% 30.20 in 10.0 mi Calm Calm - N/A   Clear
6:53 PM 55.0 °F - 37.9 °F 53% 30.21 in 10.0 mi SE 8.1 mph - N/A   Clear
7:53 PM 52.0 °F - 41.0 °F 66% 30.23 in 10.0 mi SE 3.5 mph - N/A   Clear
8:53 PM 50.0 °F - 42.1 °F 74% 30.26 in 10.0 mi Calm Calm - N/A   Clear
9:53 PM 48.9 °F - 41.0 °F 74% 30.28 in 10.0 mi SSE 5.8 mph - N/A   Clear
10:53 PM 46.9 °F - 39.9 °F 77% 30.29 in 10.0 mi Calm Calm - N/A   Clear
11:53 PM 45.0 °F 43.5 °F 41.0 °F 86% 30.28 in 10.0 mi South 3.5 mph - N/A   Clear